User: anonymous   Login
Location: Lalanga
(4.5882°N, 32.9072°E)
Time: 12:38:54
(UTC+00:00)
Language:

ARIANE 5 R/B - Orbit

View from above orbital plane
View from above orbital plane
View from above satellite
View from above satellite

Ground track
Ground track

The orbit data is extracted from the following two-line orbital elements,

1 37208U 10056C   20088.35736257 +.00000701 +00000-0 +21420-3 0  9998
2 37208 002.8753 041.5312 7048205 081.3878 346.3288 02.57711459084371
Epoch (UTC): 28 March 2020 08:34:36
Eccentricity: 0.7048205
inclination: 2.8753°
perigee height: 255 km
apogee height: 31932 km
right ascension of ascending node: 41.5312°
argument of perigee: 81.3878°
revolutions per day: 2.57711459
mean anomaly at epoch: 346.3288°
orbit number at epoch: 8437

The dashed part of the orbit path shows where the satellite is in the earth's shadow,  

DLR